FENGYUN 2G AKM

Satellite information

Favourite Embed

Satellite Type and Status

ROCKET BODYIN ORBIT

Key statistics

Satellite FENGYUN 2G AKM at a glance.

Uptime

3951

Days in orbit

Revolutions

≈ 1.0

Per day

Orbit

OTHER

Other

Inclination

7.0

Latest

Satellite identification and parameters

Extended collection of information and parameters for FENGYUN 2G AKM.

Object identification

Identified? True

Debris? False

Object name: FENGYUN 2G AKM

International designator: 2014-090C

Object number (NORAD): 40369

Object ID (CCSDS): 40369

Country: PEOPLES REPUBLIC OF CHINA (PRC)

Current information (Y/N): Y

Orbital parameters

Period: 1446.055 minutes

Inclination: 6.9625 deg

SMA: 42359.424 km

Apoapsis: 36190.15 km

Periapsis: 35772.428 km

RAAN: 71.4547 deg

Eccentricy: 0.00493069

Argument of periapsis: 166.2375 deg

Mean anomaly: 193.876 deg

Mean motion: 0.99581277 rev/day

Mean motion (dot): 0.00000016 rev/day2

B* drag term: 0.0 1/REarth

Two-line elements (TLE)

Creation date: Oct. 25, 2025, 3:11 a.m.

Reference frame: TEME

Reference center: EARTH

Epoch: Oct. 24, 2025, 9:14 p.m. UTC

TLE line 0: 0 FENGYUN 2G AKM

TLE line 1: 1 40369U 14090C 25297.88495706 .00000016 00000-0 00000-0 0 9995

TLE line 2: 2 40369 6.9625 71.4547 0049307 166.2375 193.8760 0.99581277 39298

Live tracking on map

Real-time ground track for satellite FENGYUN 2G AKM.

In-orbit conjunctions

A list of the most updated potential collisions computed for object FENGYUN 2G AKM.

Target Orbit TCA Probability of collision Miss distance Type
SL-12 R/B(2) OTHER 2025-03-03 11:48:31 TBA 3759.0 (m) ROCKET BODY

Associated space launch

FENGYUN 2G AKM was lifted into orbit during the mission ‘Long March 3A | Fengyun 2-08’, on board a Long March 3A space rocket.

The launch took place on Dec. 31, 2014, 1:02 a.m. from Launch Complex 2 (LC-2).

For more information about the launch, click the button.

Launch to space Long March 3A | Fengyun 2-08
Long March 3A | Fengyun 2-08

Agency: N/A

Status: Launch Successful

Launch date: Dec. 31, 2014, 1:02 a.m. UTC

Rocket: Long March 3A

Launch pad: Launch Complex 2 (LC-2)

Location: Xichang Satellite Launch Center, People's Republic of China

...

Latest news about this satellite

There are no fresh news available about this satellite. Check back as we update our databases every day.


Newsletter sign-up

Weekly statistics, charts and insights to help you stay on top of the space industry.